Total_Precipitation_Accumulation
2.85 3.14 3.27 2.47 2.04 1.97 2.10 2.10 2.08 2.07 2.23 2.33 2.26 2.31 2.28 2.42 2.52 2.49 2.63 2.98 3.25 3.52 4.04 4.14 3.95 3.57 3.15 3.04 2.91 2.61 2.36 2.38 2.27 2.21 2.14 2.16 2.24 2.46 2.87 2.60 2.40 1.79 1.70
2.33 2.62 2.71 2.20 1.84 1.85 1.93 1.96 1.95 2.00 2.07 2.00 2.03 2.27 2.43 2.58 2.78 2.76 3.06 3.54 3.86 4.15 4.06 3.67 3.34 2.97 2.84 2.72 2.57 2.42 2.35 2.44 2.42 2.33 2.19 2.03 2.31 2.62 2.89 2.74 2.67 1.85 1.80
1.83 2.01 1.96 2.02 1.83 1.78 1.81 1.78 1.77 1.81 1.88 1.80 1.90 2.26 2.50 2.73 3.08 3.29 3.57 3.84 4.14 4.06 3.52 3.12 2.72 2.52 2.46 2.35 2.28 2.27 2.29 2.41 2.45 2.59 2.53 1.94 1.88 2.61 2.70 2.54 2.14 1.65 1.64
1.53 1.57 1.54 1.76 1.79 1.78 1.71 1.55 1.54 1.64 1.73 1.79 1.93 2.25 2.56 2.82 3.15 3.28 3.47 3.67 3.79 3.51 3.18 2.69 2.32 2.24 2.15 1.98 1.92 1.96 2.09 2.31 2.58 2.89 2.77 2.16 1.48 2.03 2.38 2.18 1.84 1.54 1.48
1.36 1.36 1.57 1.68 1.69 1.74 1.55 1.48 1.52 1.62 1.67 1.77 1.92 2.24 2.58 2.93 3.12 3.20 3.22 3.40 3.25 3.00 2.80 2.54 2.29 2.10 1.92 1.77 1.72 1.77 1.94 2.29 2.57 2.74 2.47 2.36 2.07 2.16 2.18 2.02 1.79 1.69 1.58
1.21 1.32 1.50 1.62 1.65 1.81 1.63 1.48 1.59 1.66 1.75 1.85 2.12 2.36 2.42 2.73 2.88 2.93 3.03 3.22 3.08 2.89 2.66 2.40 2.15 1.97 1.76 1.60 1.60 1.64 1.88 2.31 2.33 2.03 2.05 2.12 1.95 2.08 2.04 2.10 1.94 1.75 1.60
1.31 1.48 1.49 1.66 1.71 1.85 1.79 1.52 1.63 1.84 1.97 1.95 2.14 2.27 2.24 2.46 2.60 2.72 2.92 3.02 2.89 2.68 2.40 2.20 2.04 1.92 1.72 1.65 1.61 1.63 1.93 2.21 1.97 1.71 1.80 2.17 1.95 1.70 1.94 2.21 2.14 1.84 1.59
1.23 1.41 1.54 1.85 1.89 1.95 1.95 1.70 1.72 1.90 1.97 2.01 2.07 2.02 2.09 2.32 2.47 2.65 2.82 2.94 2.73 2.35 2.18 2.10 1.96 1.86 1.76 1.72 1.61 1.63 1.84 1.83 1.53 1.56 1.51 1.72 1.60 1.56 1.85 2.10 2.09 1.88 1.69
1.35 1.38 1.49 1.71 1.77 1.94 2.06 1.97 1.93 2.05 2.06 2.03 2.05 2.07 2.15 2.31 2.51 2.67 2.81 2.99 2.65 2.21 2.06 1.96 1.92 1.80 1.66 1.64 1.67 1.75 1.92 1.99 1.76 1.81 1.43 1.57 1.50 1.66 1.93 2.08 2.05 1.95 1.89
1.75 1.56 1.53 1.71 1.83 1.81 1.93 2.04 2.13 2.16 2.28 2.40 2.40 2.42 2.51 2.59 2.57 2.76 2.80 2.88 2.57 2.25 2.12 2.04 2.01 1.92 1.79 1.68 1.69 1.95 2.21 1.98 1.48 1.55 1.70 1.52 1.59 1.92 2.26 2.21 2.22 2.21 2.21
2.13 1.92 1.74 1.61 1.69 1.76 1.85 2.13 2.55 2.60 2.57 2.65 2.78 2.78 2.78 3.00 3.03 3.22 3.02 2.95 2.66 2.48 2.47 2.38 2.31 2.19 2.02 1.83 1.93 2.18 2.06 1.72 1.75 1.87 1.90 1.66 1.87 2.32 2.64 2.57 2.50 2.45 2.45
2.31 1.97 1.90 1.79 1.70 1.67 1.66 2.11 2.73 2.60 2.51 2.60 2.80 2.74 2.96 3.49 3.80 3.42 3.54 3.51 3.28 3.16 3.08 3.08 3.05 2.63 2.15 2.08 2.61 2.70 1.90 1.81 2.04 2.09 2.08 2.02 2.30 2.77 3.05 3.01 2.95 2.72 2.67
2.46 2.10 2.00 1.91 1.93 1.97 2.10 2.12 2.45 2.69 2.81 2.86 2.90 2.95 3.28 3.48 3.74 3.87 3.90 3.99 4.04 3.71 3.41 3.61 3.45 2.71 2.69 3.06 3.11 2.77 2.20 2.18 2.39 2.33 2.46 2.53 2.62 3.14 3.63 3.53 3.42 3.12 2.90
2.69 2.37 2.14 2.02 2.09 2.24 2.21 2.27 2.38 2.61 2.77 2.96 3.14 3.10 3.46 4.03 4.17 4.29 4.26 4.13 4.30 4.10 4.16 4.06 4.07 3.53 3.48 3.17 3.04 2.94 2.71 2.75 2.70 2.99 3.42 3.03 2.77 3.17 3.96 4.05 3.89 3.52 3.08
2.82 2.54 2.47 2.19 2.18 2.28 2.50 2.70 2.50 2.95 3.08 3.18 3.45 3.58 3.72 4.08 4.20 4.35 4.39 4.42 3.99 3.98 4.17 4.49 4.24 4.40 4.34 3.83 3.30 3.11 3.13 3.11 3.07 3.20 3.49 3.48 3.27 3.39 4.24 4.72 4.56 4.17 3.65
2.79 2.65 2.63 2.44 2.50 2.61 2.73 2.92 3.03 3.31 3.60 3.56 3.68 3.80 3.91 4.17 4.53 4.61 4.60 4.55 4.07 3.90 4.17 4.47 4.37 4.89 4.79 4.54 3.89 3.48 3.31 3.29 3.23 3.29 3.63 3.82 3.75 3.69 4.19 4.83 5.10 5.04 4.56
2.60 2.71 2.89 2.95 3.20 3.32 3.33 3.34 3.34 3.56 3.72 3.94 4.35 4.46 4.60 4.57 4.77 4.60 4.58 4.39 4.23 4.13 4.27 4.40 4.53 4.91 4.58 4.49 4.33 3.97 3.72 3.47 3.27 3.46 3.88 4.29 3.89 3.80 4.20 4.77 5.23 5.22 5.05
2.67 2.75 2.98 3.08 3.49 3.69 3.79 3.93 3.87 3.91 4.00 4.36 4.65 4.95 4.94 4.79 4.65 4.81 4.54 4.27 4.34 4.26 4.48 4.87 4.89 4.93 5.01 4.89 4.65 4.32 4.07 3.93 3.43 3.48 3.68 3.91 4.16 3.58 4.01 4.77 5.08 4.85 4.92
2.99 3.26 3.62 3.75 3.68 3.78 4.01 4.23 4.04 4.15 4.21 4.25 4.43 4.81 4.76 4.41 4.29 4.83 4.75 4.70 4.57 4.78 4.75 4.41 5.07 5.22 5.17 5.09 4.41 4.31 3.84 3.75 3.66 3.44 3.56 3.65 3.90 3.83 3.87 3.97 4.57 4.44 4.70
3.37 3.77 4.01 4.05 4.29 4.59 4.81 4.75 4.56 4.33 4.26 4.15 4.26 4.50 4.42 4.38 4.27 4.71 4.64 4.64 4.78 5.22 5.33 5.16 5.45 5.29 5.08 5.11 4.31 4.06 3.74 3.35 3.27 3.23 3.06 3.32 3.41 3.10 3.30 3.58 3.99 3.43 3.73
3.47 3.72 3.99 4.38 4.78 4.93 4.76 4.71 4.75 4.66 4.53 4.20 4.08 4.24 4.30 4.04 4.06 4.55 4.39 4.92 4.88 5.07 5.21 5.09 5.31 5.15 4.90 4.97 4.93 4.33 3.64 3.15 3.02 2.81 2.81 3.04 2.97 2.99 3.35 3.83 4.10 3.95 3.49
3.22 3.49 3.88 4.35 4.70 4.63 4.77 5.03 5.06 4.99 4.49 4.25 4.17 4.25 4.10 3.83 3.72 3.88 4.55 4.60 4.70 4.93 4.98 4.95 4.99 4.71 4.40 4.80 5.13 5.00 4.18 3.68 3.15 2.54 2.77 2.81 2.95 3.25 3.26 3.35 3.86 4.20 3.93
3.18 3.61 3.95 4.29 4.43 4.47 4.74 4.91 4.68 4.57 4.21 4.20 4.25 4.17 3.95 3.79 3.72 3.88 4.23 4.35 4.48 4.40 4.65 4.88 4.69 4.60 4.50 4.59 4.84 5.15 4.64 3.95 3.31 2.84 2.66 2.73 3.11 3.42 3.31 3.28 3.21 3.42 3.49
3.15 3.73 4.17 4.19 4.28 4.18 4.38 4.55 4.43 4.14 3.98 3.93 3.95 3.74 3.63 3.51 3.45 3.60 3.85 4.09 4.25 4.17 4.39 4.22 4.35 4.54 4.64 4.48 4.58 4.48 4.43 4.17 3.95 3.40 2.89 2.75 3.02 3.13 3.12 2.86 2.84 3.18 3.33
2.85 3.27 3.71 4.07 4.16 4.00 4.00 4.14 4.33 4.17 3.92 3.72 3.61 3.54 3.49 3.48 3.31 3.32 3.55 3.79 3.91 3.82 3.86 4.08 4.47 4.39 4.36 4.31 4.47 4.52 4.65 4.41 4.05 3.83 3.40 3.12 2.91 2.62 2.68 2.72 2.70 2.80 3.05
2.67 3.06 3.33 3.55 3.55 3.55 3.56 3.64 3.79 3.88 3.87 3.65 3.45 3.47 3.44 3.33 3.22 3.18 3.29 3.63 3.70 3.63 3.63 3.82 3.96 4.01 4.07 4.22 4.26 4.16 4.37 4.39 4.20 4.21 3.73 3.33 2.98 2.46 2.37 2.44 2.56 2.70 2.83